When you browse on this site, cookies collect data to enhance your experience and personalize the content and advertising you see.
Visit our Privacy Policy to learn more. By continuing to use the site, you agree to this use of cookies and data.
  • In Denmark
  • List of Countries
  • For 7 days
  • Water Temperature
  • Satellite Maps
  • Weather Map
  • Weather Widgets
  • user-avatar
    Login

    Hourly Weather Wiktoria

    Today, 18 June, Tuesday

    Time Temperature Precipitation Wind Pressure Humidity
    00:00 +7°C° 0 mm 2 mps 753 mmHg 89%
    01:00 +7°C° 0 mm 3 mps 753 mmHg 90%
    02:00 +7°C° 0 mm 3 mps 753 mmHg 90%
    03:00 +5°C° 0 mm 3 mps 753 mmHg 91%
    04:00 +6°C° 0 mm 4 mps 752 mmHg 92%
    05:00 +6°C° 0 mm 4 mps 752 mmHg 90%
    06:00 +6°C° 0 mm 4 mps 752 mmHg 88%
    07:00 +7°C° 0 mm 4 mps 752 mmHg 85%
    08:00 +7°C° 0.1 mm 4 mps 752 mmHg 84%
    09:00 +8°C° 0.1 mm 4 mps 752 mmHg 83%
    10:00 +9°C° 0.1 mm 3 mps 752 mmHg 81%
    11:00 +10°C° 0.2 mm 3 mps 752 mmHg 84%
    12:00 +10°C° 0.2 mm 3 mps 752 mmHg 86%
    13:00 +10°C° 0.2 mm 2 mps 752 mmHg 88%
    14:00 +10°C° 0.5 mm 3 mps 752 mmHg 86%
    15:00 +10°C° 0.5 mm 3 mps 752 mmHg 84%
    16:00 +11°C° 0.5 mm 3 mps 752 mmHg 82%
    17:00 +9°C° 0.2 mm 3 mps 752 mmHg 85%
    18:00 +7°C° 0.2 mm 3 mps 753 mmHg 87%
    19:00 +5°C° 0.2 mm 3 mps 753 mmHg 90%
    20:00 +4°C° 0 mm 3 mps 754 mmHg 91%
    21:00 +4°C° 0 mm 3 mps 754 mmHg 92%
    22:00 +3°C° 0 mm 3 mps 754 mmHg 93%
    23:00 +3°C° 0 mm 3 mps 754 mmHg 93%

    Tomorrow, 19 June, Wednesday

    Time Temperature Precipitation Wind Pressure Humidity
    00:00 +3°C° 0 mm 3 mps 755 mmHg 93%
    01:00 +2°C° 0 mm 3 mps 755 mmHg 92%
    02:00 +2°C° 0 mm 3 mps 755 mmHg 93%
    03:00 +2°C° 0 mm 3 mps 755 mmHg 93%
    04:00 +2°C° 0 mm 3 mps 755 mmHg 94%
    05:00 +2°C° 0 mm 2 mps 756 mmHg 93%
    06:00 +2°C° 0 mm 2 mps 756 mmHg 93%
    07:00 +2°C° 0 mm 2 mps 757 mmHg 93%
    08:00 +4°C° 0 mm 2 mps 757 mmHg 89%
    09:00 +5°C° 0 mm 2 mps 757 mmHg 86%
    10:00 +7°C° 0 mm 2 mps 757 mmHg 82%
    11:00 +8°C° 0 mm 3 mps 757 mmHg 77%
    12:00 +9°C° 0 mm 3 mps 757 mmHg 73%
    13:00 +10°C° 0 mm 4 mps 756 mmHg 69%
    14:00 +10°C° 0 mm 3 mps 756 mmHg 69%
    15:00 +10°C° 0 mm 3 mps 756 mmHg 69%
    16:00 +10°C° 0 mm 3 mps 756 mmHg 69%
    17:00 +8°C° 0 mm 3 mps 756 mmHg 74%
    18:00 +5°C° 0 mm 3 mps 756 mmHg 79%
    19:00 +4°C° 0 mm 3 mps 756 mmHg 84%
    20:00 +3°C° 0 mm 3 mps 756 mmHg 86%
    21:00 +3°C° 0 mm 3 mps 756 mmHg 87%
    22:00 +2°C° 0 mm 3 mps 756 mmHg 89%
    23:00 +2°C° 0 mm 3 mps 756 mmHg 90%

    Day after tomorrow, 20 June, Thursday

    Time Temperature Precipitation Wind Pressure Humidity
    00:00 +3°C° 0 mm 2 mps 756 mmHg 91%
    01:00 +2°C° 0 mm 2 mps 756 mmHg 92%
    02:00 +2°C° 0 mm 2 mps 756 mmHg 92%
    03:00 +2°C° 0 mm 2 mps 756 mmHg 92%
    04:00 +2°C° 0 mm 2 mps 755 mmHg 92%
    05:00 +2°C° 0 mm 1 mps 756 mmHg 92%
    06:00 +2°C° 0 mm 1 mps 756 mmHg 91%
    07:00 +2°C° 0 mm 1 mps 756 mmHg 91%
    08:00 +3°C° 0 mm 1 mps 756 mmHg 85%
    09:00 +5°C° 0 mm 1 mps 756 mmHg 79%
    10:00 +7°C° 0 mm 1 mps 756 mmHg 73%
    11:00 +8°C° 0 mm 1 mps 756 mmHg 71%
    12:00 +9°C° 0 mm 1 mps 755 mmHg 68%
    13:00 +9°C° 0 mm 2 mps 755 mmHg 65%
    14:00 +9°C° 0 mm 2 mps 755 mmHg 68%
    15:00 +9°C° 0 mm 2 mps 755 mmHg 70%
    16:00 +9°C° 0 mm 2 mps 755 mmHg 73%
    17:00 +7°C° 0 mm 2 mps 755 mmHg 79%
    18:00 +6°C° 0 mm 2 mps 756 mmHg 85%
    19:00 +4°C° 0 mm 2 mps 756 mmHg 91%
    20:00 +4°C° 0 mm 2 mps 756 mmHg 92%
    21:00 +3°C° 0 mm 2 mps 757 mmHg 92%
    22:00 +3°C° 0 mm 2 mps 757 mmHg 93%
    23:00 +3°C° 0 mm 2 mps 757 mmHg 93%

    21 June, Friday

    Time Temperature Precipitation Wind Pressure Humidity
    00:00 +2°C° 0 mm 2 mps 757 mmHg 93%
    01:00 +2°C° 0 mm 2 mps 757 mmHg 93%
    02:00 +2°C° 0 mm 2 mps 757 mmHg 93%
    03:00 +2°C° 0 mm 2 mps 757 mmHg 93%
    04:00 +2°C° 0 mm 2 mps 757 mmHg 93%
    05:00 +1°C° 0 mm 2 mps 757 mmHg 93%
    06:00 +1°C° 0 mm 2 mps 758 mmHg 93%
    07:00 +1°C° 0 mm 2 mps 758 mmHg 93%
    08:00 +3°C° 0 mm 2 mps 758 mmHg 87%
    09:00 +5°C° 0 mm 2 mps 758 mmHg 82%
    10:00 +7°C° 0 mm 2 mps 759 mmHg 77%
    11:00 +8°C° 0 mm 2 mps 758 mmHg 71%
    12:00 +10°C° 0 mm 2 mps 758 mmHg 65%
    13:00 +11°C° 0 mm 3 mps 758 mmHg 60%
    14:00 +11°C° 0 mm 3 mps 758 mmHg 62%
    15:00 +10°C° 0 mm 3 mps 758 mmHg 65%
    16:00 +10°C° 0 mm 3 mps 758 mmHg 68%
    17:00 +8°C° 0 mm 3 mps 758 mmHg 76%
    18:00 +5°C° 0 mm 3 mps 759 mmHg 83%
    19:00 +4°C° 0 mm 3 mps 759 mmHg 91%
    20:00 +3°C° 0 mm 3 mps 759 mmHg 91%
    21:00 +3°C° 0 mm 3 mps 759 mmHg 91%
    22:00 +2°C° 0 mm 3 mps 760 mmHg 92%
    23:00 +3°C° 0 mm 2 mps 760 mmHg 91%

    22 June, Saturday

    Time Temperature Precipitation Wind Pressure Humidity
    00:00 +3°C° 0 mm 2 mps 760 mmHg 90%
    01:00 +2°C° 0 mm 2 mps 760 mmHg 90%
    02:00 +2°C° 0 mm 2 mps 760 mmHg 89%
    03:00 +2°C° 0 mm 2 mps 760 mmHg 89%
    04:00 +2°C° 0 mm 2 mps 759 mmHg 88%
    05:00 +1°C° 0 mm 2 mps 760 mmHg 89%
    06:00 +1°C° 0 mm 2 mps 760 mmHg 89%
    07:00 +1°C° 0 mm 2 mps 761 mmHg 89%
    08:00 +3°C° 0 mm 2 mps 761 mmHg 82%
    09:00 +5°C° 0 mm 2 mps 761 mmHg 75%
    10:00 +7°C° 0 mm 1 mps 761 mmHg 68%
    11:00 +9°C° 0 mm 1 mps 760 mmHg 62%
    12:00 +10°C° 0 mm 1 mps 760 mmHg 57%
    13:00 +12°C° 0 mm 1 mps 760 mmHg 52%
    14:00 +12°C° 0 mm 1 mps 760 mmHg 55%
    15:00 +11°C° 0 mm 1 mps 760 mmHg 59%
    16:00 +11°C° 0 mm 1 mps 760 mmHg 62%
    17:00 +8°C° 0 mm 2 mps 760 mmHg 69%
    18:00 +7°C° 0 mm 2 mps 760 mmHg 75%
    19:00 +4°C° 0 mm 3 mps 761 mmHg 81%
    20:00 +3°C° 0 mm 3 mps 761 mmHg 83%
    21:00 +3°C° 0 mm 3 mps 761 mmHg 84%
    22:00 +2°C° 0 mm 3 mps 761 mmHg 86%
    23:00 +3°C° 0 mm 2 mps 761 mmHg 86%

    23 June, Sunday

    Time Temperature Precipitation Wind Pressure Humidity
    00:00 +2°C° 0 mm 2 mps 761 mmHg 85%
    01:00 +2°C° 0 mm 2 mps 761 mmHg 85%
    02:00 +2°C° 0 mm 2 mps 761 mmHg 85%
    03:00 +1°C° 0 mm 2 mps 761 mmHg 85%
    04:00 +2°C° 0 mm 1 mps 761 mmHg 85%
    05:00 +2°C° 0 mm 1 mps 761 mmHg 84%
    06:00 +2°C° 0 mm 1 mps 762 mmHg 84%
    07:00 +1°C° 0 mm 1 mps 762 mmHg 84%
    08:00 +3°C° 0 mm 1 mps 762 mmHg 76%
    09:00 +5°C° 0 mm 1 mps 762 mmHg 69%
    10:00 +7°C° 0 mm 1 mps 762 mmHg 61%
    11:00 +9°C° 0 mm 1 mps 762 mmHg 58%
    12:00 +10°C° 0 mm 1 mps 762 mmHg 54%
    13:00 +12°C° 0 mm 1 mps 761 mmHg 51%
    14:00 +12°C° 0 mm 2 mps 761 mmHg 55%
    15:00 +12°C° 0 mm 2 mps 761 mmHg 59%
    16:00 +10°C° 0 mm 2 mps 761 mmHg 63%
    17:00 +9°C° 0 mm 2 mps 761 mmHg 66%
    18:00 +7°C° 0 mm 2 mps 762 mmHg 68%
    19:00 +5°C° 0 mm 2 mps 762 mmHg 71%
    20:00 +4°C° 0 mm 2 mps 762 mmHg 73%
    21:00 +4°C° 0 mm 2 mps 762 mmHg 74%
    22:00 +4°C° 0 mm 2 mps 762 mmHg 75%
    23:00 +3°C° 0 mm 2 mps 762 mmHg 77%
    Show more